Location: NJAA Observatory
(40.6819°N, 74.8979°W)
Time: 09:12:41
(UTC-04:00)

Vanguard 1 - All Passes

Search period start: 01 November 2014 00:00
Search period end: 10 November 2014 23:00
Orbit: 652 x 3835 km, 34.2° (Epoch: 30 October)

Date Brightness Start Highest point End Pass type
(mag) Time Alt. Az. Time Alt. Az. Time Alt. Az.
01 Nov - 04:24:31 10° S 04:28:44 13° SSE 04:32:11 10° SE visible
01 Nov - 06:42:49 10° SW 06:49:48 29° SSE 06:54:29 10° ESE visible
01 Nov - 09:04:27 10° WSW 09:09:46 41° S 09:13:57 10° ESE daylight
01 Nov - 11:25:35 10° WSW 11:29:15 25° SSW 11:33:07 10° SE daylight
02 Nov - 03:43:29 10° SSW 03:50:25 18° SSE 03:55:24 10° ESE visible
02 Nov - 06:04:01 10° SW 06:11:18 36° S 06:16:03 10° ESE visible
02 Nov - 08:26:02 10° WSW 08:31:10 40° S 08:35:18 10° ESE daylight
02 Nov - 10:47:28 10° WSW 10:50:34 18° SSW 10:53:54 10° SSE daylight
03 Nov - 04:03:37 10° SSW 04:12:04 25° SSE 04:17:39 10° ESE visible
03 Nov - 06:25:28 10° WSW 06:32:47 41° S 06:37:32 10° ESE daylight
03 Nov - 08:47:41 10° WSW 08:52:31 36° SSW 08:56:34 10° SE daylight
03 Nov - 11:09:53 10° SW 11:11:54 13° SSW 11:14:01 10° S daylight
04 Nov - 02:06:10 10° S 02:11:51 14° SSE 02:16:27 10° SE visible
04 Nov - 04:24:21 10° SW 04:33:42 31° SSE 04:39:30 10° ESE visible
04 Nov - 06:47:04 10° WSW 06:54:14 45° S 06:58:56 10° ESE daylight
04 Nov - 09:09:23 10° WSW 09:13:50 30° SSW 09:17:43 10° SE daylight
05 Nov - 02:24:42 10° SSW 02:33:37 19° SSE 02:39:57 10° ESE visible
05 Nov - 04:45:29 10° SW 04:55:17 38° SSE 05:01:08 10° E visible
05 Nov - 07:08:45 10° WSW 07:15:40 46° S 07:20:16 10° ESE daylight
05 Nov - 09:31:13 10° WSW 09:35:07 23° SSW 09:38:39 10° SSE daylight
06 Nov - 02:44:31 10° SSW 02:55:21 26° SSE 03:02:23 10° ESE visible
06 Nov - 05:06:55 10° WSW 05:16:50 44° S 05:22:38 10° E visible
06 Nov - 07:30:29 10° W 07:37:04 44° S 07:41:34 10° ESE daylight
06 Nov - 09:53:18 10° WSW 09:56:21 17° SSW 09:59:13 10° SSE daylight
07 Nov - 00:47:51 10° S 00:54:25 13° SSE 00:59:50 10° ESE visible
07 Nov - 03:05:02 10° SW 03:17:04 32° SSE 03:24:22 10° E visible
07 Nov - 05:28:34 10° WSW 05:38:22 49° S 05:44:03 10° E visible
07 Nov - 07:52:17 10° W 07:58:25 39° SSW 08:02:46 10° SE daylight
07 Nov - 10:16:19 10° SW 10:17:32 11° SSW 10:18:44 10° SSW daylight
08 Nov - 01:05:38 10° S 01:16:14 19° SSE 01:23:56 10° ESE visible
08 Nov - 03:26:01 10° SW 03:38:44 39° SSE 03:46:05 10° E visible
08 Nov - 05:50:20 10° WSW 05:59:52 52° S 06:05:25 10° ESE visible
08 Nov - 08:14:07 10° W 08:19:42 32° SSW 08:23:50 10° SE daylight
09 Nov - 01:25:00 10° SSW 01:38:01 26° SSE 01:46:41 10° ESE visible
09 Nov - 03:47:22 10° SW 04:00:23 46° SSE 04:07:39 10° E visible
09 Nov - 06:12:11 10° WSW 06:21:20 52° S 06:26:44 10° ESE visible
09 Nov - 08:36:05 10° W 08:40:55 25° SSW 08:44:41 10° SSE daylight
09 Nov - 23:30:26 10° SSE 23:36:26 12° SE 23:41:41 10° SE night (unlit)
10 Nov - 01:45:11 10° SSW 01:59:46 32° SSE 02:08:52 10° E visible
10 Nov - 04:08:59 10° WSW 04:22:00 52° S 04:29:07 10° E visible
10 Nov - 06:34:05 10° W 06:42:46 49° SSW 06:47:59 10° ESE daylight
10 Nov - 08:58:18 10° WSW 09:02:02 18° SSW 09:05:10 10° S daylight
